DateTimeUTC,F1_A11,F1_S11,BsB_S11,BsG_S11,BsR_S11,BbsB_S11,BbsG_S11,BbsR_S11,BaB_A11,BaG_A11,BaR_A11,Tu_S11,T_S11,Uu_S11,U_S11,P_S11,T1_A11
2021-08-07T07:00:00Z,00000200,20000000,,,,,,,-000.23,0000.27,0000.24,17.8,24.7,02.0,01.3,0664.9,30.9
2021-08-07T07:01:00Z,00000200,20000000,,,,,,,0000.17,-000.01,-000.37,17.8,24.7,02.0,01.3,0664.8,30.9
2021-08-07T07:02:00Z,00000200,20000000,,,,,,,0000.01,-000.01,0000.12,17.7,24.7,02.0,01.3,0664.8,30.9
2021-08-07T07:03:00Z,00000200,60000000,,,,,,,0000.19,0000.60,0000.60,17.7,24.7,02.0,01.3,0664.8,30.9
2021-08-07T07:04:00Z,00000200,40000000,0000.90,0000.35,0000.15,0000.15,-000.03,-000.12,0000.38,0000.32,-000.07,17.7,24.4,02.4,01.6,0665.7,30.9
2021-08-07T07:05:00Z,00000200,00000000,0001.83,0000.45,0000.48,-000.16,-000.02,0000.06,0000.51,-000.08,0000.26,17.7,24.4,02.5,01.6,0665.8,30.9
2021-08-07T07:06:00Z,00000200,00000000,0001.08,0000.30,0000.65,0000.20,0000.04,0000.20,0000.10,-000.30,-000.43,17.7,24.3,02.5,01.6,0665.8,30.9
2021-08-07T07:07:00Z,00000200,00000000,0000.83,0000.49,0000.69,-000.04,-000.05,0000.18,0000.61,0000.68,0000.73,17.6,24.3,02.6,01.7,0665.8,30.9
2021-08-07T07:08:00Z,00000200,00000000,0000.81,0000.19,0000.27,0000.65,0000.16,0000.42,0000.33,0000.48,0000.47,17.6,24.2,02.7,01.8,0665.8,30.9
2021-08-07T07:09:00Z,00000200,00000000,0001.02,0000.39,0000.47,0000.22,0000.30,0000.04,0000.29,0000.51,0000.47,17.7,24.2,02.6,01.8,0665.8,30.9
2021-08-07T07:10:00Z,00000200,00000000,0000.64,0000.36,0000.32,-000.13,-000.07,0000.03,0000.29,0000.31,0000.26,17.8,24.3,02.7,01.8,0665.7,30.9
2021-08-07T07:11:00Z,00000200,00000000,0000.25,-000.01,0000.44,0000.01,-000.03,-000.07,0000.09,0000.27,0000.05,17.9,24.3,02.6,01.8,0665.8,30.9
2021-08-07T07:12:00Z,00000200,00000000,0000.10,0000.25,0000.44,-000.14,0000.01,-000.19,0000.43,0000.40,0000.01,18.0,24.4,02.7,01.8,0665.8,30.9
2021-08-07T07:13:00Z,00000200,00000000,0000.53,0000.60,0000.51,-000.30,0000.22,0000.01,-000.38,-000.34,-000.06,18.2,24.4,02.7,01.8,0665.8,30.9
2021-08-07T07:14:00Z,00000200,00000000,0000.82,0000.31,0000.20,0000.63,-000.03,0000.26,0000.68,-000.02,0000.23,18.2,24.5,02.7,01.8,0665.8,31.0
2021-08-07T07:15:00Z,00000200,00000000,0000.93,0000.57,0000.10,0000.17,-000.04,0000.18,-000.43,0000.47,-000.03,18.3,24.5,02.6,01.8,0665.8,30.9
2021-08-07T07:16:00Z,00000200,00000000,0000.82,0000.13,0000.27,0000.53,-000.19,0000.01,0000.27,0000.02,0000.03,18.2,24.5,02.7,01.8,0665.8,30.9
2021-08-07T07:17:00Z,00000200,00000000,0001.23,0000.35,0000.31,0000.32,-000.09,-000.14,-000.07,-000.17,0000.07,18.1,24.5,02.6,01.8,0665.8,30.9
2021-08-07T07:18:00Z,00000200,00000000,0000.11,0000.40,0000.30,0000.42,0000.03,0000.19,0000.38,-000.12,0000.13,18.1,24.4,02.7,01.9,0665.8,30.9
2021-08-07T07:19:00Z,00000200,00000000,0001.10,0000.58,0000.51,0000.16,-000.09,-000.15,0000.15,0000.18,-000.01,18.1,24.4,02.7,01.8,0665.8,30.9
2021-08-07T07:20:00Z,00000200,00000000,0001.35,0000.40,0000.22,0000.52,0000.05,0000.10,0000.27,0000.39,0000.57,18.0,24.4,02.8,01.9,0665.8,30.9
2021-08-07T07:21:00Z,00000200,00000000,0000.66,0000.42,0000.35,-000.06,-000.09,-000.12,0000.20,0000.24,0000.11,17.9,24.4,02.8,01.9,0665.8,30.9
2021-08-07T07:22:00Z,00000200,00000000,0001.51,0000.45,0000.36,0000.24,0000.20,0000.11,0000.28,0000.73,0000.10,17.9,24.4,02.7,01.8,0665.8,30.9
2021-08-07T07:23:00Z,00000200,00000000,0000.12,0000.23,-000.12,0000.46,-000.23,-000.01,0000.54,0000.14,0000.60,17.9,24.3,02.8,01.9,0665.8,30.9
2021-08-07T07:24:00Z,00000200,00000000,0001.17,0000.53,0000.39,0000.56,0000.07,0000.00,0000.59,0000.14,0000.64,17.9,24.3,02.9,01.9,0665.8,30.9
2021-08-07T07:25:00Z,00000200,00000000,0000.69,0000.45,0000.20,-000.12,-000.05,-000.09,-000.26,0000.36,-000.33,18.0,24.4,02.8,01.9,0665.8,30.9
2021-08-07T07:26:00Z,00000200,00000000,-000.00,0000.32,0000.38,-000.18,0000.03,0000.23,0000.29,-000.07,0000.04,18.1,24.4,02.9,02.0,0665.8,30.9
2021-08-07T07:27:00Z,00000200,00000000,0001.04,0000.48,0000.50,-000.12,-000.12,-000.18,0000.12,0000.40,0000.21,18.2,24.4,02.8,01.9,0665.8,30.9
2021-08-07T07:28:00Z,00000200,00000000,0000.50,0000.45,0000.12,0000.04,-000.05,0000.06,-000.24,-000.38,-000.12,18.2,24.5,02.8,01.9,0665.8,30.9
2021-08-07T07:29:00Z,00000200,00000000,0000.55,0000.50,0000.44,0000.35,-000.02,0000.37,0000.32,0000.25,0000.02,18.1,24.4,02.8,01.9,0665.8,30.9
2021-08-07T07:30:00Z,00000200,00000000,0001.35,0000.31,0000.38,-000.05,0000.16,0000.39,-000.24,-000.69,-000.15,18.1,24.4,02.8,01.9,0665.8,30.9
2021-08-07T07:31:00Z,00000200,00000000,0000.76,0000.38,0000.28,0000.21,-000.07,0000.15,0000.39,0000.45,-000.19,18.0,24.4,02.8,01.9,0665.8,30.9
2021-08-07T07:32:00Z,00000200,00000000,0000.67,0000.21,0000.29,0000.07,-000.06,0000.08,-000.50,0000.13,0000.04,18.0,24.3,02.7,01.8,0665.8,30.9
2021-08-07T07:33:00Z,00000200,00000000,0001.14,0000.42,0000.16,0000.40,0000.26,-000.08,0000.49,0000.18,0000.58,17.9,24.3,02.9,01.9,0665.8,30.9
2021-08-07T07:34:00Z,00000200,00000000,0001.07,0000.30,0000.31,0000.24,-000.13,0000.22,-000.24,-000.08,-000.23,17.9,24.3,02.9,02.0,0665.8,30.9
2021-08-07T07:35:00Z,00000200,00000000,0000.24,0000.25,0000.45,0000.06,-000.26,-000.10,0000.55,0000.39,-000.03,17.8,24.3,02.8,01.9,0665.8,30.9
2021-08-07T07:36:00Z,00000200,00000000,0000.86,0000.27,0000.37,-000.35,0000.11,-000.00,0000.33,0000.05,0000.16,17.8,24.2,02.9,01.9,0665.8,30.9
2021-08-07T07:37:00Z,00000200,00000000,0000.42,0000.43,0000.20,-000.03,-000.11,-000.28,0000.01,0000.41,0000.47,17.8,24.2,02.9,01.9,0665.7,30.9
2021-08-07T07:38:00Z,00000200,00000000,0000.74,0000.23,0000.68,0000.09,-000.01,-000.01,0000.56,0000.60,0000.20,17.7,24.2,03.0,02.0,0665.7,30.8
2021-08-07T07:39:00Z,00000200,00000000,0000.59,0000.28,0000.51,0000.11,-000.32,0000.08,0000.07,-000.18,-000.06,17.8,24.2,02.9,02.0,0665.7,30.9
2021-08-07T07:40:00Z,00000200,00000000,0000.09,0000.16,0000.13,-000.12,0000.18,-000.30,0000.36,0000.36,0000.48,17.9,24.2,03.0,02.0,0665.7,30.9
2021-08-07T07:41:00Z,00000200,00000000,0000.98,0000.33,0000.06,-000.67,0000.09,-000.04,0000.28,0000.21,0000.26,18.0,24.3,03.0,02.1,0665.7,30.9
2021-08-07T07:42:00Z,00000200,00000000,0000.49,0000.28,0000.55,0000.03,0000.30,0000.14,-000.16,-000.05,0000.13,18.0,24.3,03.0,02.0,0665.7,30.9
2021-08-07T07:43:00Z,00000200,00000000,0000.74,0000.32,0000.29,0000.08,-000.39,0000.20,0000.48,0000.21,-000.20,18.0,24.3,03.1,02.1,0665.7,30.9
2021-08-07T07:44:00Z,00000200,00000000,0001.47,0000.49,0000.28,0000.19,0000.14,0000.16,-000.66,-000.08,0000.31,18.0,24.3,03.0,02.1,0665.7,30.9
2021-08-07T07:45:00Z,00000200,00000000,0001.29,0000.43,0000.30,0000.49,-000.24,-000.24,0000.58,0000.12,-000.25,17.9,24.3,03.1,02.1,0665.7,30.9
2021-08-07T07:46:00Z,00000200,00000000,0000.80,0000.50,0000.46,0000.09,-000.17,0000.04,0000.36,0000.43,0000.23,17.9,24.3,03.1,02.1,0665.7,30.9
2021-08-07T07:47:00Z,00000200,00000000,0000.93,0000.60,0000.36,0000.18,-000.06,-000.04,-000.09,-000.24,-000.23,17.8,24.2,03.0,02.0,0665.7,30.9
2021-08-07T07:48:00Z,00000200,00000000,0001.32,0000.27,0000.57,-000.14,0000.03,0000.05,0000.10,0000.25,0000.44,17.8,24.2,03.0,02.0,0665.7,30.9
2021-08-07T07:49:00Z,00000200,00000000,0000.38,0000.35,0000.22,0000.13,-000.05,-000.14,0000.00,0000.34,-000.03,17.8,24.2,03.0,02.0,0665.7,30.9
2021-08-07T07:50:00Z,00000200,00000000,0000.58,0000.11,0000.19,0000.23,0000.24,0000.28,-000.04,-000.18,0000.03,17.7,24.2,03.0,02.0,0665.7,30.9
2021-08-07T07:51:00Z,00000200,00000000,0000.41,0000.06,0000.20,-000.05,0000.24,-000.30,0000.24,0000.42,0000.50,17.7,24.1,03.0,02.0,0665.7,30.9
2021-08-07T07:52:00Z,00000200,00000000,0001.32,0000.35,0000.32,-000.08,-000.08,-000.11,0000.50,0000.05,-000.33,17.7,24.1,03.0,02.0,0665.7,30.8
2021-08-07T07:53:00Z,00000200,00000000,0000.39,0000.37,0000.50,-000.24,0000.01,0000.17,-000.34,-000.01,0000.23,17.6,24.1,02.9,02.0,0665.7,30.8
2021-08-07T07:54:00Z,00000200,00000000,0001.22,0000.60,0000.22,0000.05,0000.05,0000.06,0000.46,0000.20,0000.02,17.7,24.1,02.8,01.9,0665.7,30.9
2021-08-07T07:55:00Z,00000200,00000000,0001.50,0000.30,0000.32,-000.24,-000.21,-000.11,-000.11,-000.34,-000.22,17.8,24.2,02.8,01.9,0665.7,30.9
2021-08-07T07:56:00Z,00000200,00000000,0001.23,0000.32,0000.22,-000.08,-000.33,0000.06,0000.03,0000.15,-000.34,17.9,24.2,02.6,01.8,0665.7,30.9
2021-08-07T07:57:00Z,00000200,40000000,,,,,,,-000.15,-000.23,0000.12,18.0,24.3,03.1,02.1,0665.8,31.0
2021-08-07T07:58:00Z,00000200,60000000,,,,,,,-000.06,-000.06,0000.18,17.9,24.5,02.4,01.6,0664.7,30.9
2021-08-07T07:59:00Z,00000200,20000000,,,,,,,-000.10,-000.33,-000.45,17.8,24.6,02.3,01.5,0664.7,30.9
